SCP
0 0 0 0 0 0 0 0 0 0 0 0 0 0 0 0 -0 -0 -0 -0 -0 -0 0 0 0 0 0 0 0 0 0 0 0 0 0 0 0 0 0 0 0 0 0
0 0 0 0 0 0 0 0 0 0 0 0 0 0 0 0 -0 -0 -0 -0 -0 0 0 0 0 0 0 0 0 0 0 0 0 0 0 0 0 0 0 0 0 0 0
0 0 0 0 0 0 0 0 0 0 0 0 0 0 0 -0 -0 -0 -0 0 0 0 0 0 0 0 0 0 0 0 0 0 0 0 0 0 0 0 0 0 0 0 0
0 0 0 0 0 0 0 0 0 0 0 0 0 0 0 -0 0 -0 -0 -0 -0 -0 -0 -0 -0 0 0 0 0 0 -0 0 0 0 0 0 0 0 0 0 0 0 0
0 0 0 0 0 0 0 0 0 0 0 0 0 0 0 0 0 0 -0 -0 0 0 -0 -0 0 0 -0 -0 -0 -0 -0 0 0 0 0 0 0 0 0 0 0 0 0
0 0 0 0 0 0 0 0 0 0 0 0 0 0 0 0 0 0 0 0 -0 0 0 -0 0 0 0 -0 -0 -0 -0 -0 -0 0 0 0 0 0 0 0 0 0 0
0 0 0 0 0 0 0 0 0 0 0 0 0 0 0 0 0 0 -0 0 -0 -0 -0 -0 -0 0 -0 -0 -0 -0 -0 -0 -0 -0 -0 -0 -0 0 0 0 0 0 0
0 0 0 0 0 0 0 0 0 0 0 0 0 0 0 0 -0 0 0 0 0 -0 0 -0 -0 0 0 0 -0 0 -0 -0 0 0 -0 -0 0 0 0 0 0 0 0
0 0 0 0 0 0 0 0 0 0 0 0 0 -0 -0 0 0 0 0 0 0 0 -0 -0 -0 -0 -0 -0 -0 0 0 0 -0 0 0 0 -0 -0 0 0 0 0 0
0 0 0 0 0 0 0 0 0 0 0 0 0 0 -0 -0 0 0 0 0 0 0 0 -0 -0 -0 -0 0 -0 -0 -0 -0 0 0 0 0 -0 0 -0 0 0 0 0
0 0 0 0 0 0 0 0 0 0 0 0 0 0 0 -0 0 0 0 0 0 0 -0 -0 -0 -0 0 -0 -0 -0 0 0 0 0 0 0 0 0 0 0 0 0 0
0 0 0 0 0 0 0 0 0 0 0 0 0 0 0 0 -0 0 0 0 0 0 -0 -0 0 -0 -0 0 0 -0 -0 0 0 0 0 0 0 0 0 0 0 0 0
0 0 0 0 0 0 0 0 0 0 0 0 0 0 0 0 0 0 0 0 0 0 0 0 0 0 0 0 0 -0 0 0 0 0 0 0 0 0 0 0 0 0 0
0 0 0 0 0 0 0 0 0 0 0 0 0 0 0 0 0 0 0 0 0 0 0 0 0 0 0 0 0 0 0 0 0 0 0 0 0 0 0 0 0 0 0
0 0 0 0 0 0 0 0 0 0 0 0 0 0 0 0 0 0 0 0 0 0 0 0 0 0 0 0 0 0 0 0 0 0 0 0 0 0 0 0 0 0 0
0 0 0 0 0 0 0 0 0 0 0 0 0 0 0 0 0 0 0 0 0 0 0 0 0 0 0 0 0 0 0 0 0 0 0 0 0 0 0 0 0 0 0
0 0 0 0 0 0 0 0 0 0 0 0 0 0 0 0 0 0 0 0 0 0 0 0 0 0 0 0 0 0 0 0 0 0 0 0 0 0 0 0 0 0 0
0 0 0 0 0 0 0 0 0 0 0 0 0 0 0 0 0 0 0 0 0 0 0 0 0 0 0 0 0 0 0 0 0 0 0 0 0 0 0 0 0 0 0
0 0 0 0 0 0 0 0 0 0 0 0 0 0 0 0 0 0 0 0 0 0 0 0 0 0 0 0 0 0 0 0 0 0 0 0 0 0 0 0 0 0 0
0 0 0 0 0 0 0 0 0 0 0 0 0 0 0 0 0 0 0 0 0 0 0 0 0 0 0 0 0 0 0 0 0 0 0 0 0 0 0 0 0 0 0
0 0 0 0 0 0 0 0 0 0 0 0 0 0 0 0 0 0 0 0 0 0 0 0 0 0 0 0 0 0 0 0 0 0 0 0 0 0 0 0 0 0 0
0 0 0 0 0 0 0 0 0 0 0 0 0 0 0 0 0 0 0 0 0 0 0 0 0 0 0 0 0 0 0 0 0 0 0 0 0 0 0 0 0 0 0
0 0 0 0 0 0 0 0 0 0 0 0 0 0 0 0 0 0 0 0 0 0 0 0 0 0 0 0 0 0 0 0 0 0 0 0 0 0 0 0 0 0 0
0 0 0 0 0 0 0 0 0 0 0 0 0 0 0 0 0 0 0 0 0 0 0 0 0 0 0 0 0 0 0 0 0 0 0 0 0 0 0 0 0 0 0
0 0 0 0 0 0 0 0 0 0 0 0 0 0 0 0 0 0 0 0 0 0 0 0 0 0 0 0 0 0 0 0 0 0 0 0 0 0 0 0 0 0 0
0 0 0 0 0 0 0 0 0 0 0 0 0 0 0 0 0 0 0 0 0 0 0 0 0 0 0 0 0 0 0 0 0 0 0 0 0 0 0 0 0 0 0
Wind_Speed_500mb
21 19 16 13 16 17 16 12 12 12 11 10 8 4 2 4 4 12 14 18 21 25 23 22 20 35 47 57 57 48 50 50 60 61 62 58 54 46 37 28 24 22 19
24 23 19 17 17 19 19 15 14 14 13 13 11 8 5 6 11 14 13 17 23 25 34 30 25 33 47 51 36 24 24 49 53 72 61 54 47 41 34 28 26 21 19
30 27 24 20 18 19 22 20 18 16 14 15 14 12 8 10 15 18 13 15 17 21 26 33 32 40 47 46 39 33 45 52 65 62 60 53 46 38 35 28 24 22 17
35 33 29 24 19 20 25 25 22 19 18 19 18 17 13 12 17 18 21 15 19 19 19 30 36 42 45 49 30 26 41 59 58 63 60 56 50 45 33 31 31 24 16
39 37 32 28 26 24 26 27 26 22 20 21 24 22 19 20 21 20 26 21 24 25 24 27 33 40 42 49 32 27 31 54 62 68 66 61 56 48 43 38 32 28 20
40 37 34 33 29 25 26 30 29 25 24 24 26 27 25 24 22 26 26 23 26 27 32 38 39 42 44 41 33 26 29 40 57 60 57 55 52 50 46 42 37 33 26
36 34 35 35 32 27 25 29 30 26 26 24 28 32 29 29 26 28 32 26 22 30 38 41 43 42 43 40 31 28 30 32 40 44 49 50 50 47 47 42 39 32 17
33 33 33 33 30 28 27 27 30 27 24 22 27 33 31 30 28 29 31 31 26 33 42 36 40 40 41 40 37 36 36 37 39 43 44 48 49 48 45 38 39 37 23
29 31 31 31 30 28 24 24 28 28 24 23 26 33 34 28 29 30 34 32 30 39 48 36 34 43 45 44 43 40 39 36 37 39 43 49 47 46 45 40 44 42 32
22 27 29 29 30 29 25 24 27 26 22 24 24 33 34 31 32 31 33 32 33 40 41 42 36 42 48 51 48 41 39 33 35 37 40 39 38 43 41 39 35 39 34
8 17 23 25 27 26 25 26 23 18 18 24 23 36 37 32 33 37 35 35 36 38 39 42 43 42 42 43 43 40 35 29 33 36 41 45 49 48 49 46 42 38 36
17 2 14 20 24 26 26 23 26 20 18 23 23 35 38 33 39 37 42 40 41 43 39 38 42 44 45 46 44 42 36 32 34 40 41 44 49 54 54 52 50 47 43
31 24 9 9 19 23 23 24 27 23 23 25 26 29 30 36 41 43 43 46 44 48 47 41 39 42 43 43 46 45 41 41 43 46 45 43 45 47 53 58 56 52 49
25 24 23 16 6 16 23 24 26 29 28 29 29 32 28 26 37 45 47 48 49 49 46 43 46 49 50 48 48 49 49 48 48 49 47 42 44 51 56 58 57 56 53
21 21 19 17 14 8 16 24 27 29 35 33 34 35 34 29 26 27 41 51 53 53 53 53 54 57 57 57 55 53 52 54 54 52 50 48 50 54 57 58 58 58 58
22 20 18 17 14 12 11 16 25 29 34 37 38 41 40 40 37 36 32 33 45 50 56 61 64 59 60 59 60 57 52 56 61 57 57 56 52 52 55 57 59 59 56
29 25 21 20 19 17 13 14 14 24 33 38 45 46 42 43 44 49 47 42 44 42 51 58 60 64 64 63 61 61 62 62 62 64 64 61 58 56 56 59 58 58 58
35 31 29 26 24 23 21 18 16 17 22 30 38 45 50 48 40 39 43 49 46 52 50 51 62 70 72 75 74 69 74 70 71 75 74 70 66 61 60 61 61 61 58
36 32 30 28 27 28 28 27 25 22 21 23 24 35 40 43 41 38 37 48 50 43 46 56 55 57 70 71 77 76 76 81 80 76 79 77 70 65 62 61 60 59 57
37 37 33 31 30 29 30 32 34 33 30 26 23 23 27 41 48 50 49 50 52 51 43 46 57 62 67 67 68 76 82 77 78 81 83 82 74 68 63 60 59 60 58
40 40 39 38 38 36 33 32 34 37 39 38 32 25 26 32 40 46 49 50 53 56 61 64 52 57 60 67 68 69 68 72 77 76 84 84 77 66 64 61 60 62 63
40 37 38 38 39 39 37 34 35 37 40 43 43 38 33 36 37 40 45 49 51 52 53 57 60 55 53 61 71 68 67 68 73 73 79 84 76 70 69 67 66 67 66
37 36 35 36 37 37 38 37 37 37 40 43 44 46 44 42 43 42 42 44 45 48 51 52 57 59 53 54 61 61 65 66 66 72 78 81 77 76 72 72 72 73 74
30 31 32 32 36 39 39 39 38 40 42 44 47 48 48 49 50 50 49 48 45 44 47 52 53 56 56 52 55 60 63 61 64 67 75 78 82 78 76 74 75 76 76
29 31 31 32 33 35 38 41 44 45 44 44 46 48 51 53 53 53 54 54 53 52 48 46 50 56 60 61 58 58 55 60 62 66 77 86 82 79 78 76 77 79 81
29 31 33 33 33 34 37 40 42 44 48 52 55 55 55 55 56 57 57 57 57 58 57 56 50 47 54 60 66 66 59 57 61 64 73 81 89 88 86 81 80 83 83
Wind_Direction_500mb
231 234 242 246 243 231 234 229 219 219 221 228 221 208 157 284 152 128 175 160 156 170 173 158 147 169 171 172 161 154 157 161 152 146 150 153 156 157 156 151 150 138 123
231 236 238 239 242 233 230 230 223 226 224 221 217 214 182 209 185 151 161 188 177 182 190 199 195 169 176 173 168 176 190 180 175 157 153 156 158 160 163 165 162 145 136
234 236 240 242 242 239 230 230 228 230 229 223 216 206 168 202 180 176 180 206 190 184 188 191 184 168 180 178 169 174 185 176 167 167 165 167 167 168 172 171 168 162 154
234 234 236 240 241 240 234 229 231 233 232 217 219 211 198 185 187 188 181 197 196 183 173 174 174 172 179 176 163 166 181 183 186 177 175 177 177 173 182 182 174 168 163
239 236 234 236 235 237 237 229 229 232 234 227 218 212 206 187 200 179 186 193 197 199 181 175 170 177 182 188 194 193 188 194 188 183 178 183 184 183 189 188 187 178 169
238 236 231 232 234 236 238 234 230 235 237 228 218 215 210 199 202 203 185 191 202 199 190 180 181 188 192 199 209 215 222 201 193 195 193 192 195 196 198 199 198 188 172
232 228 225 227 231 232 235 237 235 235 247 241 218 212 210 208 205 207 199 193 202 200 199 189 189 191 199 204 208 208 203 211 217 212 216 209 206 215 212 204 202 204 211
223 221 222 225 229 231 233 234 238 240 247 240 222 217 201 207 205 206 207 205 199 192 187 195 203 200 197 204 199 196 202 209 217 217 220 221 219 215 213 213 203 201 203
211 215 217 215 217 226 234 236 239 244 250 245 231 217 198 204 204 208 205 208 207 199 211 203 210 205 196 191 194 202 206 216 220 218 225 231 232 225 220 209 207 205 209
202 209 215 219 218 217 219 222 236 246 251 246 220 211 205 202 207 207 204 207 206 205 202 208 213 203 198 194 205 215 225 235 225 210 208 209 209 214 216 218 224 220 220
197 214 217 218 218 222 223 223 222 242 244 229 219 205 206 212 208 206 207 204 194 197 199 195 195 196 206 214 221 223 234 238 223 219 212 202 198 201 205 209 214 219 231
63 169 215 215 218 220 230 230 229 223 228 236 233 210 208 228 209 212 208 213 203 200 204 205 207 206 212 217 223 225 225 230 227 217 212 211 204 200 202 206 211 214 223
49 50 41 233 225 226 235 241 227 222 226 230 228 226 226 225 222 213 218 219 215 213 212 217 222 226 226 229 226 226 217 220 218 218 216 214 214 209 204 206 210 215 221
33 33 33 26 305 244 241 239 234 231 225 226 230 236 239 242 226 221 221 224 226 222 220 225 229 230 234 238 229 223 220 220 221 220 219 219 216 211 209 210 214 218 221
13 12 10 11 12 328 264 248 247 237 233 240 234 231 234 246 244 236 235 228 229 231 229 225 229 231 231 228 228 225 224 223 221 221 220 221 219 217 215 215 219 223 226
344 338 334 338 341 341 324 271 255 248 240 236 244 245 243 242 251 255 254 250 243 238 234 229 232 232 233 230 234 229 232 231 231 225 222 222 226 225 223 223 224 227 230
318 309 302 301 308 314 313 313 291 260 250 246 239 243 253 252 252 251 258 258 259 250 241 240 239 240 235 238 240 242 241 234 236 228 228 225 225 227 227 227 228 229 228
309 307 300 291 283 284 290 290 293 294 275 259 252 248 246 251 260 262 247 255 258 257 253 248 245 242 244 244 245 242 245 239 240 234 226 225 226 228 229 229 230 231 231
307 308 305 301 291 282 277 277 279 278 285 286 272 258 255 253 248 252 259 251 259 261 265 259 259 256 248 246 246 248 248 248 241 236 232 226 227 228 230 232 234 235 234
303 303 299 298 298 292 283 276 274 276 275 271 273 280 260 257 254 255 249 260 270 264 267 268 256 254 252 248 246 243 248 250 246 241 234 230 227 230 233 234 236 233 233
299 295 292 288 285 286 285 283 280 277 276 276 275 267 265 265 262 256 257 260 266 272 264 260 273 259 253 254 250 248 246 247 247 245 235 231 228 229 237 236 236 235 233
298 296 293 288 285 284 282 278 275 278 279 277 275 272 267 265 266 269 268 266 269 273 269 261 260 268 259 253 253 248 246 245 246 239 236 233 227 229 235 237 236 233 231
297 295 291 290 289 286 283 281 278 275 275 278 279 278 274 268 266 265 266 270 271 270 269 267 263 261 265 260 253 248 247 246 249 244 234 229 225 229 236 237 236 233 230
310 307 303 296 290 288 287 285 284 280 278 277 278 279 279 277 272 269 267 267 266 268 267 269 268 264 264 264 259 251 250 249 244 241 231 225 231 231 235 238 238 236 233
310 311 312 309 304 298 293 289 286 286 284 283 280 280 280 280 279 276 272 269 267 267 266 269 268 266 261 260 261 258 253 251 248 243 237 235 235 235 237 241 240 238 233
303 306 308 309 308 305 302 299 296 291 287 286 284 283 282 280 280 282 280 277 273 268 268 265 267 272 267 262 259 259 260 256 252 248 245 240 235 230 232 237 241 239 236
Wind_Speed_850mb
21 19 16 13 16 17 16 12 12 12 11 10 8 4 2 4 4 12 14 18 21 25 23 22 20 35 47 57 57 48 50 50 60 61 62 58 54 46 37 28 24 22 19
24 23 19 17 17 19 19 15 14 14 13 13 11 8 5 6 11 14 13 17 23 25 34 30 25 33 47 51 36 24 24 49 53 72 61 54 47 41 34 28 26 21 19
30 27 24 20 18 19 22 20 18 16 14 15 14 12 8 10 15 18 13 15 17 21 26 33 32 40 47 46 39 33 45 52 65 62 60 53 46 38 35 28 24 22 17
35 33 29 24 19 20 25 25 22 19 18 19 18 17 13 12 17 18 21 15 19 19 19 30 36 42 45 49 30 26 41 59 58 63 60 56 50 45 33 31 31 24 16
39 37 32 28 26 24 26 27 26 22 20 21 24 22 19 20 21 20 26 21 24 25 24 27 33 40 42 49 32 27 31 54 62 68 66 61 56 48 43 38 32 28 20
40 37 34 33 29 25 26 30 29 25 24 24 26 27 25 24 22 26 26 23 26 27 32 38 39 42 44 41 33 26 29 40 57 60 57 55 52 50 46 42 37 33 26
36 34 35 35 32 27 25 29 30 26 26 24 28 32 29 29 26 28 32 26 22 30 38 41 43 42 43 40 31 28 30 32 40 44 49 50 50 47 47 42 39 32 17
33 33 33 33 30 28 27 27 30 27 24 22 27 33 31 30 28 29 31 31 26 33 42 36 40 40 41 40 37 36 36 37 39 43 44 48 49 48 45 38 39 37 23
29 31 31 31 30 28 24 24 28 28 24 23 26 33 34 28 29 30 34 32 30 39 48 36 34 43 45 44 43 40 39 36 37 39 43 49 47 46 45 40 44 42 32
22 27 29 29 30 29 25 24 27 26 22 24 24 33 34 31 32 31 33 32 33 40 41 42 36 42 48 51 48 41 39 33 35 37 40 39 38 43 41 39 35 39 34
8 17 23 25 27 26 25 26 23 18 18 24 23 36 37 32 33 37 35 35 36 38 39 42 43 42 42 43 43 40 35 29 33 36 41 45 49 48 49 46 42 38 36
17 2 14 20 24 26 26 23 26 20 18 23 23 35 38 33 39 37 42 40 41 43 39 38 42 44 45 46 44 42 36 32 34 40 41 44 49 54 54 52 50 47 43
31 24 9 9 19 23 23 24 27 23 23 25 26 29 30 36 41 43 43 46 44 48 47 41 39 42 43 43 46 45 41 41 43 46 45 43 45 47 53 58 56 52 49
25 24 23 16 6 16 23 24 26 29 28 29 29 32 28 26 37 45 47 48 49 49 46 43 46 49 50 48 48 49 49 48 48 49 47 42 44 51 56 58 57 56 53
21 21 19 17 14 8 16 24 27 29 35 33 34 35 34 29 26 27 41 51 53 53 53 53 54 57 57 57 55 53 52 54 54 52 50 48 50 54 57 58 58 58 58
22 20 18 17 14 12 11 16 25 29 34 37 38 41 40 40 37 36 32 33 45 50 56 61 64 59 60 59 60 57 52 56 61 57 57 56 52 52 55 57 59 59 56
29 25 21 20 19 17 13 14 14 24 33 38 45 46 42 43 44 49 47 42 44 42 51 58 60 64 64 63 61 61 62 62 62 64 64 61 58 56 56 59 58 58 58
35 31 29 26 24 23 21 18 16 17 22 30 38 45 50 48 40 39 43 49 46 52 50 51 62 70 72 75 74 69 74 70 71 75 74 70 66 61 60 61 61 61 58
36 32 30 28 27 28 28 27 25 22 21 23 24 35 40 43 41 38 37 48 50 43 46 56 55 57 70 71 77 76 76 81 80 76 79 77 70 65 62 61 60 59 57
37 37 33 31 30 29 30 32 34 33 30 26 23 23 27 41 48 50 49 50 52 51 43 46 57 62 67 67 68 76 82 77 78 81 83 82 74 68 63 60 59 60 58
40 40 39 38 38 36 33 32 34 37 39 38 32 25 26 32 40 46 49 50 53 56 61 64 52 57 60 67 68 69 68 72 77 76 84 84 77 66 64 61 60 62 63
40 37 38 38 39 39 37 34 35 37 40 43 43 38 33 36 37 40 45 49 51 52 53 57 60 55 53 61 71 68 67 68 73 73 79 84 76 70 69 67 66 67 66
37 36 35 36 37 37 38 37 37 37 40 43 44 46 44 42 43 42 42 44 45 48 51 52 57 59 53 54 61 61 65 66 66 72 78 81 77 76 72 72 72 73 74
30 31 32 32 36 39 39 39 38 40 42 44 47 48 48 49 50 50 49 48 45 44 47 52 53 56 56 52 55 60 63 61 64 67 75 78 82 78 76 74 75 76 76
29 31 31 32 33 35 38 41 44 45 44 44 46 48 51 53 53 53 54 54 53 52 48 46 50 56 60 61 58 58 55 60 62 66 77 86 82 79 78 76 77 79 81
29 31 33 33 33 34 37 40 42 44 48 52 55 55 55 55 56 57 57 57 57 58 57 56 50 47 54 60 66 66 59 57 61 64 73 81 89 88 86 81 80 83 83
Wind_Direction_850mb
231 234 242 246 243 231 234 229 219 219 221 228 221 208 157 284 152 128 175 160 156 170 173 158 147 169 171 172 161 154 157 161 152 146 150 153 156 157 156 151 150 138 123
231 236 238 239 242 233 230 230 223 226 224 221 217 214 182 209 185 151 161 188 177 182 190 199 195 169 176 173 168 176 190 180 175 157 153 156 158 160 163 165 162 145 136
234 236 240 242 242 239 230 230 228 230 229 223 216 206 168 202 180 176 180 206 190 184 188 191 184 168 180 178 169 174 185 176 167 167 165 167 167 168 172 171 168 162 154
234 234 236 240 241 240 234 229 231 233 232 217 219 211 198 185 187 188 181 197 196 183 173 174 174 172 179 176 163 166 181 183 186 177 175 177 177 173 182 182 174 168 163
239 236 234 236 235 237 237 229 229 232 234 227 218 212 206 187 200 179 186 193 197 199 181 175 170 177 182 188 194 193 188 194 188 183 178 183 184 183 189 188 187 178 169
238 236 231 232 234 236 238 234 230 235 237 228 218 215 210 199 202 203 185 191 202 199 190 180 181 188 192 199 209 215 222 201 193 195 193 192 195 196 198 199 198 188 172
232 228 225 227 231 232 235 237 235 235 247 241 218 212 210 208 205 207 199 193 202 200 199 189 189 191 199 204 208 208 203 211 217 212 216 209 206 215 212 204 202 204 211
223 221 222 225 229 231 233 234 238 240 247 240 222 217 201 207 205 206 207 205 199 192 187 195 203 200 197 204 199 196 202 209 217 217 220 221 219 215 213 213 203 201 203
211 215 217 215 217 226 234 236 239 244 250 245 231 217 198 204 204 208 205 208 207 199 211 203 210 205 196 191 194 202 206 216 220 218 225 231 232 225 220 209 207 205 209
202 209 215 219 218 217 219 222 236 246 251 246 220 211 205 202 207 207 204 207 206 205 202 208 213 203 198 194 205 215 225 235 225 210 208 209 209 214 216 218 224 220 220
197 214 217 218 218 222 223 223 222 242 244 229 219 205 206 212 208 206 207 204 194 197 199 195 195 196 206 214 221 223 234 238 223 219 212 202 198 201 205 209 214 219 231
63 169 215 215 218 220 230 230 229 223 228 236 233 210 208 228 209 212 208 213 203 200 204 205 207 206 212 217 223 225 225 230 227 217 212 211 204 200 202 206 211 214 223
49 50 41 233 225 226 235 241 227 222 226 230 228 226 226 225 222 213 218 219 215 213 212 217 222 226 226 229 226 226 217 220 218 218 216 214 214 209 204 206 210 215 221
33 33 33 26 305 244 241 239 234 231 225 226 230 236 239 242 226 221 221 224 226 222 220 225 229 230 234 238 229 223 220 220 221 220 219 219 216 211 209 210 214 218 221
13 12 10 11 12 328 264 248 247 237 233 240 234 231 234 246 244 236 235 228 229 231 229 225 229 231 231 228 228 225 224 223 221 221 220 221 219 217 215 215 219 223 226
344 338 334 338 341 341 324 271 255 248 240 236 244 245 243 242 251 255 254 250 243 238 234 229 232 232 233 230 234 229 232 231 231 225 222 222 226 225 223 223 224 227 230
318 309 302 301 308 314 313 313 291 260 250 246 239 243 253 252 252 251 258 258 259 250 241 240 239 240 235 238 240 242 241 234 236 228 228 225 225 227 227 227 228 229 228
309 307 300 291 283 284 290 290 293 294 275 259 252 248 246 251 260 262 247 255 258 257 253 248 245 242 244 244 245 242 245 239 240 234 226 225 226 228 229 229 230 231 231
307 308 305 301 291 282 277 277 279 278 285 286 272 258 255 253 248 252 259 251 259 261 265 259 259 256 248 246 246 248 248 248 241 236 232 226 227 228 230 232 234 235 234
303 303 299 298 298 292 283 276 274 276 275 271 273 280 260 257 254 255 249 260 270 264 267 268 256 254 252 248 246 243 248 250 246 241 234 230 227 230 233 234 236 233 233
299 295 292 288 285 286 285 283 280 277 276 276 275 267 265 265 262 256 257 260 266 272 264 260 273 259 253 254 250 248 246 247 247 245 235 231 228 229 237 236 236 235 233
298 296 293 288 285 284 282 278 275 278 279 277 275 272 267 265 266 269 268 266 269 273 269 261 260 268 259 253 253 248 246 245 246 239 236 233 227 229 235 237 236 233 231
297 295 291 290 289 286 283 281 278 275 275 278 279 278 274 268 266 265 266 270 271 270 269 267 263 261 265 260 253 248 247 246 249 244 234 229 225 229 236 237 236 233 230
310 307 303 296 290 288 287 285 284 280 278 277 278 279 279 277 272 269 267 267 266 268 267 269 268 264 264 264 259 251 250 249 244 241 231 225 231 231 235 238 238 236 233
310 311 312 309 304 298 293 289 286 286 284 283 280 280 280 280 279 276 272 269 267 267 266 269 268 266 261 260 261 258 253 251 248 243 237 235 235 235 237 241 240 238 233
303 306 308 309 308 305 302 299 296 291 287 286 284 283 282 280 280 282 280 277 273 268 268 265 267 272 267 262 259 259 260 256 252 248 245 240 235 230 232 237 241 239 236